User: anonymous   Login
Location: STAR School
(35.3054°N, 111.2976°W)
Time: 12:52:07
(UTC-07:00)
Language:

Vanguard 3 - Orbit

View from above orbital plane
View from above orbital plane
View from above satellite
View from above satellite

Ground track
Ground track

The orbit data is extracted from the following two-line orbital elements,

1    20U 59007A   19142.20421904  .00000133  00000-0  52229-4 0  9993
2    20  33.3440 139.4215 1666654 346.0331   9.9075 11.55639384185245
Epoch (UTC): 22 May 2019 04:54:04
Eccentricity: 0.1666654
inclination: 33.3440°
perigee height: 508 km
apogee height: 3263 km
right ascension of ascending node: 139.4215°
argument of perigee: 346.0331°
revolutions per day: 11.55639384
mean anomaly at epoch: 9.9075°
orbit number at epoch: 18524

The dashed part of the orbit path shows where the satellite is in the earth's shadow,  

DLR